• In Russia
  • List of Countries
  • For 7 days
  • Water Temperature
  • Satellite Maps
  • Weather Map
  • Weather Widgets
  • user-avatar
    Login

    Hourly Weather Wien

    Today, 21 July, Friday

    Time Temperature Precipitation Wind Pressure Humidity
    00:00 +21°C° 1.2 mm 5 mps 741 mmHg 86%
    01:00 +21°C° 1.2 mm 5 mps 741 mmHg 89%
    02:00 +21°C° 0.7 mm 4 mps 742 mmHg 89%
    03:00 +20°C° 0.7 mm 4 mps 742 mmHg 90%
    04:00 +20°C° 0.7 mm 4 mps 742 mmHg 90%
    05:00 +20°C° 0.6 mm 3 mps 742 mmHg 90%
    06:00 +20°C° 0.6 mm 3 mps 742 mmHg 89%
    07:00 +20°C° 0.6 mm 3 mps 743 mmHg 88%
    08:00 +22°C° 0.2 mm 3 mps 743 mmHg 82%
    09:00 +24°C° 0.2 mm 3 mps 743 mmHg 76%
    10:00 +25°C° 0.2 mm 3 mps 743 mmHg 71%
    11:00 +26°C° 0 mm 2 mps 743 mmHg 63%
    12:00 +28°C° 0 mm 2 mps 743 mmHg 56%
    13:00 +29°C° 0 mm 2 mps 743 mmHg 48%
    14:00 +29°C° 0 mm 2 mps 742 mmHg 47%
    15:00 +30°C° 0 mm 2 mps 742 mmHg 46%
    16:00 +30°C° 0 mm 2 mps 742 mmHg 45%
    17:00 +29°C° 0.1 mm 2 mps 742 mmHg 50%
    18:00 +27°C° 0.1 mm 2 mps 742 mmHg 56%
    19:00 +26°C° 0.1 mm 2 mps 742 mmHg 62%
    20:00 +25°C° 0.3 mm 2 mps 742 mmHg 68%
    21:00 +23°C° 0.3 mm 2 mps 742 mmHg 73%
    22:00 +22°C° 0.3 mm 1 mps 742 mmHg 79%
    23:00 +21°C° 0.1 mm 1 mps 742 mmHg 82%

    Tomorrow, 22 July, Saturday

    Time Temperature Precipitation Wind Pressure Humidity
    00:00 +21°C° 0.1 mm 1 mps 742 mmHg 84%
    01:00 +21°C° 0.1 mm 1 mps 742 mmHg 87%
    02:00 +20°C° 0.1 mm 1 mps 742 mmHg 88%
    03:00 +20°C° 0.1 mm 1 mps 742 mmHg 89%
    04:00 +20°C° 0.1 mm 1 mps 742 mmHg 91%
    05:00 +21°C° 0 mm 1 mps 742 mmHg 86%
    06:00 +22°C° 0 mm 1 mps 742 mmHg 82%
    07:00 +23°C° 0 mm 1 mps 743 mmHg 78%
    08:00 +25°C° 0 mm 1 mps 743 mmHg 70%
    09:00 +27°C° 0 mm 1 mps 743 mmHg 62%
    10:00 +29°C° 0 mm 1 mps 743 mmHg 54%
    11:00 +30°C° 0 mm 1 mps 742 mmHg 50%
    12:00 +31°C° 0 mm 1 mps 742 mmHg 47%
    13:00 +33°C° 0 mm 1 mps 742 mmHg 43%
    14:00 +33°C° 0 mm 1 mps 742 mmHg 42%
    15:00 +33°C° 0 mm 1 mps 742 mmHg 42%
    16:00 +33°C° 0 mm 1 mps 742 mmHg 41%
    17:00 +32°C° 0 mm 1 mps 742 mmHg 46%
    18:00 +30°C° 0 mm 1 mps 742 mmHg 51%
    19:00 +29°C° 0 mm 1 mps 742 mmHg 56%
    20:00 +27°C° 0 mm 1 mps 742 mmHg 59%
    21:00 +26°C° 0 mm 2 mps 742 mmHg 61%
    22:00 +25°C° 0 mm 2 mps 742 mmHg 63%
    23:00 +25°C° 0.2 mm 2 mps 742 mmHg 67%

    Day after tomorrow, 23 July, Sunday

    Time Temperature Precipitation Wind Pressure Humidity
    00:00 +24°C° 0.2 mm 1 mps 742 mmHg 71%
    01:00 +23°C° 0.2 mm 1 mps 742 mmHg 74%
    02:00 +23°C° 0.2 mm 1 mps 742 mmHg 77%
    03:00 +22°C° 0.2 mm 1 mps 742 mmHg 79%
    04:00 +22°C° 0.2 mm 1 mps 742 mmHg 81%
    05:00 +23°C° 0.1 mm 1 mps 742 mmHg 78%
    06:00 +24°C° 0.1 mm 1 mps 742 mmHg 75%
    07:00 +25°C° 0.1 mm 2 mps 743 mmHg 72%
    08:00 +27°C° 0.1 mm 2 mps 743 mmHg 66%
    09:00 +28°C° 0.1 mm 2 mps 742 mmHg 59%
    10:00 +30°C° 0.1 mm 3 mps 742 mmHg 53%
    11:00 +31°C° 0.1 mm 2 mps 742 mmHg 49%
    12:00 +32°C° 0.1 mm 2 mps 742 mmHg 45%
    13:00 +34°C° 0.1 mm 2 mps 742 mmHg 41%
    14:00 +34°C° 0.1 mm 2 mps 742 mmHg 42%
    15:00 +34°C° 0.1 mm 2 mps 742 mmHg 42%
    16:00 +34°C° 0.1 mm 2 mps 742 mmHg 43%
    17:00 +31°C° 0.1 mm 2 mps 742 mmHg 48%
    18:00 +30°C° 0.1 mm 2 mps 742 mmHg 53%
    19:00 +28°C° 0.1 mm 2 mps 742 mmHg 58%
    20:00 +27°C° 0.7 mm 2 mps 742 mmHg 65%
    21:00 +25°C° 0.7 mm 3 mps 742 mmHg 71%
    22:00 +24°C° 0.7 mm 3 mps 742 mmHg 78%
    23:00 +22°C° 1.2 mm 3 mps 742 mmHg 82%

    24 July, Monday

    Time Temperature Precipitation Wind Pressure Humidity
    00:00 +21°C° 1.2 mm 3 mps 742 mmHg 85%
    01:00 +21°C° 1.2 mm 3 mps 742 mmHg 88%
    02:00 +20°C° 1.4 mm 4 mps 741 mmHg 89%
    03:00 +20°C° 1.4 mm 4 mps 741 mmHg 89%
    04:00 +20°C° 1.4 mm 4 mps 741 mmHg 90%
    05:00 +19°C° 0.6 mm 4 mps 741 mmHg 89%
    06:00 +19°C° 0.6 mm 5 mps 741 mmHg 87%
    07:00 +19°C° 0.6 mm 5 mps 741 mmHg 86%
    08:00 +20°C° 0.1 mm 4 mps 741 mmHg 79%
    09:00 +22°C° 0.1 mm 4 mps 741 mmHg 73%
    10:00 +23°C° 0.1 mm 4 mps 741 mmHg 66%
    11:00 +25°C° 0 mm 4 mps 740 mmHg 63%
    12:00 +26°C° 0 mm 3 mps 740 mmHg 59%
    13:00 +26°C° 0 mm 3 mps 739 mmHg 55%
    14:00 +27°C° 0 mm 3 mps 739 mmHg 53%
    15:00 +27°C° 0 mm 2 mps 738 mmHg 52%
    16:00 +28°C° 0 mm 2 mps 738 mmHg 50%
    17:00 +26°C° 0.1 mm 2 mps 738 mmHg 55%
    18:00 +25°C° 0.1 mm 2 mps 738 mmHg 61%
    19:00 +24°C° 0.1 mm 2 mps 738 mmHg 67%
    20:00 +21°C° 1 mm 3 mps 738 mmHg 73%
    21:00 +20°C° 1 mm 4 mps 738 mmHg 79%
    22:00 +19°C° 1 mm 5 mps 738 mmHg 84%
    23:00 +17°C° 1.7 mm 6 mps 738 mmHg 86%

    25 July, Tuesday

    Time Temperature Precipitation Wind Pressure Humidity
    00:00 +17°C° 1.7 mm 6 mps 738 mmHg 87%
    01:00 +17°C° 1.7 mm 6 mps 738 mmHg 89%
    02:00 +16°C° 0.7 mm 6 mps 738 mmHg 88%
    03:00 +16°C° 0.7 mm 6 mps 738 mmHg 88%
    04:00 +16°C° 0.7 mm 6 mps 738 mmHg 88%
    05:00 +16°C° 0.1 mm 6 mps 738 mmHg 86%
    06:00 +16°C° 0.1 mm 6 mps 738 mmHg 84%
    07:00 +16°C° 0.1 mm 6 mps 738 mmHg 82%
    08:00 +17°C° 0.1 mm 6 mps 738 mmHg 77%
    09:00 +19°C° 0.1 mm 6 mps 738 mmHg 72%
    10:00 +20°C° 0.1 mm 7 mps 738 mmHg 67%
    11:00 +21°C° 0 mm 7 mps 738 mmHg 61%
    12:00 +22°C° 0 mm 7 mps 738 mmHg 56%
    13:00 +24°C° 0 mm 7 mps 738 mmHg 50%
    14:00 +24°C° 0 mm 7 mps 738 mmHg 50%
    15:00 +24°C° 0 mm 6 mps 738 mmHg 49%
    16:00 +24°C° 0 mm 6 mps 738 mmHg 48%
    17:00 +23°C° 0 mm 6 mps 739 mmHg 53%
    18:00 +21°C° 0 mm 5 mps 739 mmHg 58%
    19:00 +20°C° 0 mm 4 mps 739 mmHg 63%
    20:00 +19°C° 0 mm 4 mps 739 mmHg 66%
    21:00 +18°C° 0 mm 4 mps 740 mmHg 69%
    22:00 +17°C° 0 mm 4 mps 740 mmHg 72%
    23:00 +17°C° 0 mm 4 mps 741 mmHg 74%

    26 July, Wednesday

    Time Temperature Precipitation Wind Pressure Humidity
    00:00 +15°C° 0 mm 4 mps 741 mmHg 75%
    01:00 +15°C° 0 mm 4 mps 741 mmHg 77%
    02:00 +15°C° 0 mm 4 mps 741 mmHg 78%
    03:00 +15°C° 0 mm 4 mps 742 mmHg 79%
    04:00 +14°C° 0 mm 4 mps 742 mmHg 81%
    05:00 +15°C° 0 mm 4 mps 742 mmHg 77%
    06:00 +16°C° 0 mm 5 mps 742 mmHg 73%
    07:00 +17°C° 0 mm 5 mps 742 mmHg 70%
    08:00 +20°C° 0 mm 5 mps 742 mmHg 64%
    09:00 +21°C° 0 mm 5 mps 743 mmHg 58%
    10:00 +23°C° 0 mm 5 mps 743 mmHg 53%
    11:00 +25°C° 0 mm 5 mps 742 mmHg 49%
    12:00 +26°C° 0 mm 4 mps 742 mmHg 46%
    13:00 +27°C° 0 mm 4 mps 742 mmHg 43%
    14:00 +27°C° 0.1 mm 4 mps 742 mmHg 44%
    15:00 +27°C° 0.1 mm 4 mps 742 mmHg 45%
    16:00 +27°C° 0.1 mm 3 mps 742 mmHg 46%
    17:00 +25°C° 0 mm 3 mps 742 mmHg 52%
    18:00 +24°C° 0 mm 2 mps 742 mmHg 58%
    19:00 +23°C° 0 mm 2 mps 742 mmHg 64%
    20:00 +21°C° 0 mm 1 mps 742 mmHg 68%
    21:00 +20°C° 0 mm 1 mps 742 mmHg 72%
    22:00 +19°C° 0 mm 1 mps 743 mmHg 76%
    23:00 +19°C° 0 mm 1 mps 743 mmHg 77%
    Show more